This is the latest recevied weather packets stored in our database for station/object KK6LVQ-13. If no packets are shown the sender has not sent any weather packets the latest 10 day(s).
| Time | Temp. | Humidity | Pressure | Rain* | Wind** | Luminosity | Snow |
|---|---|---|---|---|---|---|---|
| 1778079571 | 10.56° C | 98% | 1025.6 hPa | 0 mm | - | 74 W/m² | - |
| 1778079267 | 10.56° C | 98% | 1025.7 hPa | 0 mm | - | 71 W/m² | - |
| 1778078965 | 10.56° C | 99% | 1025.6 hPa | 0 mm | - | 58 W/m² | - |
| 1778078661 | 10.56° C | 99% | 1025.7 hPa | 0 mm | - | 48 W/m² | - |
| 1778078360 | 10° C | 99% | 1025.7 hPa | 0 mm | - | 41 W/m² | - |
| 1778078056 | 10.56° C | 99% | 1025.6 hPa | 0 mm | - | 38 W/m² | - |
| 1778077755 | 10.56° C | 99% | 1025.8 hPa | 0 mm | - | 34 W/m² | - |
| 1778077452 | 10.56° C | 99% | 1025.6 hPa | 0 mm | - | 34 W/m² | - |
| 1778077150 | 10.56° C | 99% | 1025.5 hPa | 0 mm | - | 40 W/m² | - |
| 1778076848 | 10° C | 99% | 1025.5 hPa | 0 mm | - | 45 W/m² | - |
| 1778076546 | 10° C | 99% | 1025.6 hPa | 0 mm | - | 44 W/m² | - |
| 1778076243 | 10° C | 99% | 1025.5 hPa | 0 mm | - | 37 W/m² | - |
| 1778075940 | 10° C | 99% | 1025.3 hPa | 0 mm | - | 34 W/m² | - |
| 1778075636 | 10° C | 99% | 1025.3 hPa | 0 mm | - | 28 W/m² | - |
| 1778075333 | 10° C | 99% | 1025.4 hPa | 0 mm | - | 24 W/m² | - |
| 1778075029 | 10° C | 99% | 1025.1 hPa | 0 mm | - | 20 W/m² | - |
| 1778074726 | 10° C | 99% | 1025.1 hPa | 0 mm | - | 18 W/m² | - |
| 1778074423 | 10° C | 99% | 1025 hPa | 0 mm | - | 14 W/m² | - |
| 1778074119 | 10° C | 99% | 1024.9 hPa | 0 mm | - | 11 W/m² | - |
| 1778073817 | 10° C | 99% | 1024.9 hPa | 0 mm | - | 8 W/m² | - |
| 1778073515 | 10° C | 99% | 1024.8 hPa | 0 mm | - | 6 W/m² | - |
| 1778073211 | 10° C | 99% | 1024.9 hPa | 0 mm | - | 4 W/m² | - |
| 1778072909 | 10° C | 99% | 1024.7 hPa | 0 mm | - | 2 W/m² | - |
| 1778072604 | 10° C | 99% | 1024.7 hPa | 0 mm | - | 1 W/m² | - |
| 1778072302 | 10° C | 99% | 1024.7 hPa | 0 mm | - | 0 W/m² | - |
* Rain latest hour (hover to see other rain measurements)
** Current wind speed in m/s (hover to see current wind gust speed)